Showing default

SJ-21, 49330

Orbit data source: Space-Track

SJ-21, 49330 is a payload satellite owned by SAST (CN) in GEO that was launched on Sun, 24 Oct 2021 UTC via a CHANG ZHENG 3B launch vehicle from the Xichang Space Center, China (XSC). Payload-class satellites include a variety of spacecraft equipped with specific instruments for various scientific and technological missions. These include communications satellites like Starlink; space stations such as the ISS; scientific satellites like the Hubble; Earth observation satellites from companies like Planet Labs, Umbra, and HawkEye 360; GPS; miniature CubeSats for education and research; and military/defense satellites.

Not visible in the next 10 days
Identifier
49330, 2021-094A
Orbit
GEO
Country
Flag of CNCN / PRC
Related business
Manufacturer
SAST?
Mission
Operational Defense Technology
Bus & Motor
SJ21, Unknown motor
Mass
~5,000 kg wet, ~2,500 kg dry
Launch date (UTC)
2021-10-24 (5 years ago)
Launch vehicle
CHANG ZHENG 3B
Launch site
Xichang Space Center, China (XSC)
Object type
Payload
Rocket body
Debris
Shape & HBR
Box + 2 Pan, 15.0 m
Radar Cross Section
34.063 m², Large (>1 m²)

Expand to show TLE details & history
Last TLE update: 11 hours ago

TLE from 11 hours ago
0 SJ-21
1 49330U 21094A   26119.96795559 -.00000346  00000-0  00000-0 0  9993
2 49330   5.0011  61.4529 0048003 168.8431 103.9317  1.00277316  4871
Epoch: 2026-04-29T23:13Z
TLE epoch observation values (Epoch: 2026-04-29T23:13:51.362Z)
Latitude
-4.97555°
Longitude
128.39379°
Altitude
35,835.743 km
Speed
3.071 km/s
True Right ascension
22h 19m 06s
True Declination
-4° 58' 14"
Sunlit
Object was in daylight at epoch
Visualization orbit readout
Latitude
Unknown
Longitude
Unknown
Altitude
Unknown
Speed
Unknown
Apparent Right ascension
Unknown
Apparent Declination
Unknown
Sunlit
N/A
Visualization observer readout
Local Sidereal Time
17:27:38
Azimuth
Unknown
Elevation
Unknown
Doppler factor
Unknown
Orbital elements
Apogee altitude
35,988.504 km
Perigee altitude
35,583.702 km
Semi-major axis
42,164.24 km
Eccentricity
0.0048
Inclination
5.0011°
RAAN
61.4529°
Arg. of periapsis
168.8431°
True anomaly
104.46481°
Mean anomaly
103.9317°
Eccentric anomaly
104.19834°
Mean motion
0.25068 °/min
Orbital period
1,436.07 mins
BSTAR
0
Loading maneuver chart data...
Computing Atmospheric mass density...
Loading historical data...
Loading historical data...
Loading historical data...
Loading historical data...
Loading historical data...
Loading historical data...
Loading historical data...
Other satellites on launch #94 in the year 2021 (2021-10-24 UTC)

Documentation

Showing up to 5 results
|